Weather History for Salisbury, MD

Change the Weather History Date:

Monday, December 31, 2012

  Actual Average Record
Temperature  
Mean Temperature 37 °F 36 °F  
Max Temperature 48 °F 45 °F 68 °F (1990)
Min Temperature 25 °F 27 °F 0 °F (1917)
Degree Days  
Heating Degree Days 28 29  
Month to date heating degree days 555 806  
Since 1 July heating degree days 1299 1624  
Cooling Degree Days 0 0  
Month to date cooling degree days 0 0  
Year to date cooling degree days 1732 1153  
Moisture  
Dew Point 24 °F    
Average Humidity 59    
Maximum Humidity 75    
Minimum Humidity 42    
Precipitation  
Precipitation 0.00 in 0.10 in 1.44 in (1975)
Month to date precipitation 3.26 3.71  
Year to date precipitation 43.23 45.68  
Snow  
Snow 0.00 in 0.00 in 1.00 in (1946)
Month to date snowfall 0.0 1.6  
Since 1 July snowfall 0.0 1.8  
Snow Depth 0.00 in    
Sea Level Pressure  
Sea Level Pressure 30.22 in    
Wind  
Wind Speed 6 mph (SW)    
Max Wind Speed 18 mph    
Max Gust Speed 23 mph    
Visibility 10 miles    
Events      
T = Trace of Precipitation, MM = Missing Value Source: NWS Daily Summary

Daily Weather History Graph

Daily Weather History Graph

Search for Another Location

Airport:

Trip Planner

Search our weather history database for the weather conditions in past years. The results will help you decide how hot, cold, wet, or windy it might be!

Date:

Astronomy

Dec. 31, 2012 Rise Set
Actual Time 7:18 AM EST 4:51 PM EST
Civil Twilight 6:49 AM EST 5:21 PM EST
Nautical Twilight 6:16 AM EST 5:54 PM EST
Astronomical Twilight 5:44 AM EST 6:26 PM EST
Moon 8:17 PM EST (12/31) 9:01 AM EST (12/31)
Length of Visible Light 10h 31m
Length of Day
9h 32m
Waning Gibbous, 90% of the Moon is Illuminated
Dec 31
Waning Gibbous
Jan 4
Last Quarter
Jan 11
New
Jan 18
First Quarter
Jan 26
Full

Hourly Weather History & Observations

Time (EST) Temp. Windchill Dew Point Humidity Pressure Visibility Wind Dir Wind Speed Gust Speed Precip Events Conditions
12:54 AM 30.9 °F 25.2 °F 21.0 °F 67% 30.33 in 10.0 mi WSW 5.8 mph - N/A   Clear
1:54 AM 32.0 °F 27.5 °F 21.0 °F 64% 30.33 in 10.0 mi West 4.6 mph - N/A   Clear
2:54 AM 32.0 °F 26.4 °F 19.9 °F 61% 30.35 in 10.0 mi WNW 5.8 mph - N/A   Clear
3:54 AM 28.0 °F - 19.9 °F 72% 30.31 in 10.0 mi Calm Calm - N/A   Clear
4:54 AM 28.0 °F - 21.0 °F 75% 30.30 in 10.0 mi Calm Calm - N/A   Clear
5:54 AM 27.0 °F 21.6 °F 19.9 °F 75% 30.32 in 10.0 mi SSW 4.6 mph - N/A   Clear
6:54 AM 26.1 °F 21.9 °F 19.9 °F 78% 30.31 in 10.0 mi SSW 3.5 mph - N/A   Clear
7:54 AM 28.0 °F 21.7 °F 21.9 °F 78% 30.29 in 10.0 mi SSW 5.8 mph - N/A   Clear
8:54 AM 33.1 °F - 24.1 °F 70% 30.30 in 10.0 mi Calm Calm - N/A   Clear
9:54 AM 37.0 °F 31.6 °F 26.1 °F 65% 30.30 in 10.0 mi SW 6.9 mph - N/A   Clear
10:54 AM 39.9 °F 34.5 °F 27.0 °F 60% 30.28 in 10.0 mi SW 8.1 mph - N/A   Clear
11:54 AM 44.1 °F 39.0 °F 25.0 °F 47% 30.24 in 10.0 mi WSW 9.2 mph - N/A   Clear
12:54 PM 45.0 °F 40.1 °F 24.1 °F 44% 30.19 in 10.0 mi WSW 9.2 mph - N/A   Clear
1:54 PM 46.0 °F 44.8 °F 25.0 °F 44% 30.15 in 10.0 mi SSW 3.5 mph - N/A   Clear
2:54 PM 46.0 °F 41.0 °F 24.1 °F 42% 30.14 in 10.0 mi SSW 10.4 mph - N/A   Clear
3:54 PM 44.1 °F 39.0 °F 25.0 °F 47% 30.15 in 10.0 mi WSW 9.2 mph - N/A   Partly Cloudy
4:54 PM 42.1 °F 37.7 °F 26.1 °F 53% 30.12 in 10.0 mi SSW 6.9 mph - N/A   Mostly Cloudy
5:54 PM 42.1 °F - 28.0 °F 58% 30.12 in 10.0 mi Calm Calm - N/A   Overcast
7:54 PM 44.1 °F 39.5 °F 26.1 °F 49% 30.08 in 10.0 mi SW 8.1 mph - N/A   Overcast
8:54 PM 44.1 °F 41.5 °F 27.0 °F 51% 30.05 in 10.0 mi SW 4.6 mph - N/A   Mostly Cloudy
9:54 PM 45.0 °F 39.7 °F 26.1 °F 48% 30.06 in 10.0 mi SW 10.4 mph - N/A   Mostly Cloudy
11:54 PM 45.0 °F 41.2 °F 28.0 °F 52% 30.02 in 10.0 mi SW 6.9 mph - N/A   Scattered Clouds